STARLINK-34464, 64664

Orbit data source: Space-Track

STARLINK-34464, 64664 is a payload satellite owned by SpaceX/Seattle (US) in LEO that was launched on Sat, 28 Jun 2025 UTC via an FALCON 9 launch vehicle from the Air Force Eastern Test Range (AFETR). Payload-class satellites include a variety of spacecraft equipped with specific instruments for various scientific and technological missions. These include communications satellites like Starlink; space stations such as the ISS; scientific satellites like the Hubble; Earth observation satellites from companies like Planet Labs, Umbra, and HawkEye 360; GPS; miniature CubeSats for education and research; and military/defense satellites.

Loading next visibility...
Identifier
64664, 2025-139A
Orbit
LEO
Country
Flag of USUS
Related business
Manufacturer
SpaceX/Seattle
Mission
Operational Commercial Communications
Bus & Motor
STARLINK V2MO, Unknown motor
Mass
575 kg wet, ~530 kg dry
Launch date (UTC)
2025-06-28 (1 year ago)
Launch vehicle
FALCON 9
Launch site
Air Force Eastern Test Range (AFETR)
Object type
Payload
Rocket body
Debris
Shape & HBR
Box + 2 Pan, 17.7 m
Radar Cross Section
36.964 m², Large (>1 m²)

Expand to show TLE details & history
Last TLE update: 1 day ago

TLE from 1 day ago
0 STARLINK-34464
1 64664U 25139A   26170.83185878  .00028909  00000-0  86358-3 0  9991
2 64664  53.1593  11.1101 0001109 112.3843 247.7277 15.34395460 55941
Epoch: 2026-06-19T19:57Z
TLE epoch observation values (Epoch: 2026-06-19T19:57:52.598Z)
Latitude
-0.00004°
Longitude
163.58573°
Altitude
463.906 km
Speed
7.636 km/s
True Right ascension
00h 44m 26s
True Declination
0° 00' 00"
Sunlit
Object was in daylight at epoch
Visualization orbit readout
Latitude
Unknown
Longitude
Unknown
Altitude
Unknown
Speed
Unknown
Apparent Right ascension
Unknown
Apparent Declination
Unknown
Sunlit
N/A
Visualization observer readout
Local Sidereal Time
07:19:50
Azimuth
Unknown
Elevation
Unknown
Doppler factor
Unknown
Orbital elements
Apogee altitude
463.732 km
Perigee altitude
462.215 km
Semi-major axis
6,841.111 km
Eccentricity
0.00011
Inclination
53.1593°
RAAN
11.1101°
Arg. of periapsis
112.3843°
True anomaly
247.71594°
Mean anomaly
247.7277°
Eccentric anomaly
247.72182°
Mean motion
3.83578 °/min
Orbital period
93.85 mins
BSTAR
0.00086358
Loading maneuver chart data...
Computing Atmospheric mass density...
Loading historical data...
Loading historical data...
Loading historical data...
Loading historical data...
Loading historical data...
Loading historical data...
Loading historical data...

Documentation

Showing up to 5 results
|